Weather History for York, NE

Change the Weather History Date:

Sunday, March 9, 2014

  Actual Average Record
Temperature  
Mean Temperature 48 °F -  
Max Temperature 73 °F 49 °F 73 °F (2014)
Min Temperature 24 °F 26 °F 6 °F (1982)
Degree Days  
Heating Degree Days 16    
Moisture  
Dew Point 24 °F    
Average Humidity 44    
Maximum Humidity 86    
Minimum Humidity 12    
Precipitation  
Precipitation 0.00 in - - ()
Sea Level Pressure  
Sea Level Pressure 29.98 in    
Wind  
Wind Speed 13 mph (SW)    
Max Wind Speed 31 mph    
Max Gust Speed 40 mph    
Visibility 10 miles    
Events      
Averages and records for this station are not official NWS values.
T = Trace of Precipitation, MM = Missing Value Source: NWS Daily Summary

Daily Weather History Graph

Daily Weather History Graph

Search for Another Location

Airport:

Trip Planner

Search our weather history database for the weather conditions in past years. The results will help you decide how hot, cold, wet, or windy it might be!

Date:

Astronomy

Mar. 09, 2014 Rise Set
Actual Time 7:51 AM CDT 7:30 PM CDT
Civil Twilight 7:24 AM CDT 7:58 PM CDT
Nautical Twilight 6:52 AM CDT 8:29 PM CDT
Astronomical Twilight 6:20 AM CDT 9:01 PM CDT
Moon 1:22 PM CDT (3/9) 3:20 AM CDT (3/9)
Length of Visible Light 12h 33m
Length of Day
11h 38m
First Quarter, 61% of the Moon is Illuminated
Mar 9
First Quarter
Mar 16
Full
Mar 23
Last Quarter
Mar 30
New
Apr 7
First Quarter

Hourly Weather History & Observations

Time (CDT) Temp. Windchill Dew Point Humidity Pressure Visibility Wind Dir Wind Speed Gust Speed Precip Events Conditions
12:15 AM 24.8 °F 14.6 °F 10.4 °F 54% 30.23 in 10.0 mi SSW 10.4 mph - N/A   Clear
12:35 AM 26.6 °F 17.5 °F 10.4 °F 51% 30.23 in 10.0 mi SSW 9.2 mph - N/A   Clear
12:55 AM 24.8 °F 15.3 °F 10.4 °F 54% 30.22 in 10.0 mi SSW 9.2 mph - N/A   Clear
1:15 AM 26.6 °F 18.2 °F 12.2 °F 55% 30.22 in 10.0 mi SSW 8.1 mph - N/A   Clear
1:35 AM 26.6 °F 17.5 °F 14.0 °F 59% 30.22 in 10.0 mi SSW 9.2 mph - N/A   Clear
1:55 AM 26.6 °F 17.5 °F 15.8 °F 64% 30.20 in 10.0 mi SSW 9.2 mph - N/A   Clear
3:15 AM 28.4 °F 19.7 °F 15.8 °F 59% 30.19 in 10.0 mi SSW 9.2 mph - N/A   Clear
3:35 AM 28.4 °F 19.1 °F 17.6 °F 64% 30.18 in 10.0 mi SSW 10.4 mph - N/A   Clear
3:55 AM 28.4 °F 19.1 °F 19.4 °F 69% 30.17 in 10.0 mi SW 10.4 mph - N/A   Clear
4:15 AM 28.4 °F 18.5 °F 19.4 °F 69% 30.15 in 10.0 mi SSW 11.5 mph - N/A   Clear
4:35 AM 28.4 °F 18.5 °F 19.4 °F 69% 30.13 in 10.0 mi SSW 11.5 mph - N/A   Clear
4:55 AM 30.2 °F 20.2 °F 19.4 °F 64% 30.12 in 10.0 mi SSW 12.7 mph - N/A   Clear
5:15 AM 30.2 °F 21.9 °F 21.2 °F 69% 30.13 in 10.0 mi SW 9.2 mph - N/A   Clear
5:35 AM 32.0 °F 24.2 °F 23.0 °F 69% 30.13 in 10.0 mi SSW 9.2 mph - N/A   Clear
5:55 AM 30.2 °F 21.9 °F 23.0 °F 75% 30.13 in 10.0 mi SSW 9.2 mph - N/A   Clear
6:15 AM 32.0 °F 23.0 °F 23.0 °F 69% 30.12 in 10.0 mi SW 11.5 mph - N/A   Clear
6:35 AM 30.2 °F 22.6 °F 23.0 °F 75% 30.12 in 10.0 mi SW 8.1 mph - N/A   Clear
6:55 AM 30.2 °F 21.9 °F 23.0 °F 75% 30.12 in 10.0 mi SSW 9.2 mph - N/A   Clear
7:15 AM 28.4 °F 19.7 °F 23.0 °F 80% 30.12 in 10.0 mi SSW 9.2 mph - N/A   Clear
7:35 AM 28.4 °F 19.7 °F 24.8 °F 86% 30.11 in 10.0 mi SSW 9.2 mph - N/A   Clear
7:55 AM 28.4 °F 19.1 °F 24.8 °F 86% 30.11 in 10.0 mi SSW 10.4 mph - N/A   Clear
8:15 AM 28.4 °F 18.5 °F 24.8 °F 86% 30.10 in 10.0 mi SSW 11.5 mph - N/A   Clear
8:35 AM 32.0 °F 23.6 °F 26.6 °F 80% 30.10 in 10.0 mi SSW 10.4 mph - N/A   Clear
8:55 AM 32.0 °F 23.0 °F 26.6 °F 80% 30.10 in 10.0 mi SW 11.5 mph - N/A   Clear
9:15 AM 35.6 °F 28.0 °F 28.4 °F 75% 30.09 in 10.0 mi SW 10.4 mph - N/A   Clear
9:35 AM 39.2 °F 31.6 °F 30.2 °F 70% 30.08 in 10.0 mi SW 12.7 mph - N/A   Clear
9:55 AM 44.6 °F 37.8 °F 30.2 °F 57% 30.08 in 10.0 mi SW 15.0 mph 18.4 mph N/A   Clear
10:15 AM 48.2 °F - 30.2 °F 50% 30.06 in 10.0 mi SW 15.0 mph - N/A   Clear
10:35 AM 50.0 °F - 32.0 °F 50% 30.05 in 10.0 mi SW 17.3 mph - N/A   Clear
10:55 AM 53.6 °F - 32.0 °F 44% 30.05 in 10.0 mi SW 16.1 mph 21.9 mph N/A   Clear
11:15 AM 55.4 °F - 30.2 °F 38% 30.03 in 10.0 mi SW 19.6 mph 23.0 mph N/A   Clear
11:35 AM 59.0 °F - 30.2 °F 34% 30.01 in 10.0 mi SW 21.9 mph 27.6 mph N/A   Clear
11:55 AM 60.8 °F - 28.4 °F 29% 30.01 in 10.0 mi SW 19.6 mph 25.3 mph N/A   Clear
12:15 PM 62.6 °F - 28.4 °F 27% 29.99 in 10.0 mi SW 27.6 mph 33.4 mph N/A   Clear
12:35 PM 64.4 °F - 28.4 °F 26% 29.97 in 10.0 mi SW 27.6 mph 34.5 mph N/A   Clear
12:55 PM 66.2 °F - 26.6 °F 23% 29.96 in 10.0 mi SW 29.9 mph 36.8 mph N/A   Clear
1:15 PM 66.2 °F - 26.6 °F 23% 29.96 in 10.0 mi SW 31.1 mph 35.7 mph N/A   Clear
1:35 PM 68.0 °F - 26.6 °F 21% 29.94 in 10.0 mi WSW 27.6 mph 36.8 mph N/A   Clear
1:55 PM 68.0 °F - 24.8 °F 20% 29.92 in 10.0 mi SW 29.9 mph 39.1 mph N/A   Clear
2:15 PM 68.0 °F - 24.8 °F 20% 29.91 in 10.0 mi SW 29.9 mph 40.3 mph N/A   Clear
2:35 PM 71.6 °F - 23.0 °F 16% 29.89 in 10.0 mi SW 28.8 mph 39.1 mph N/A   Clear
2:55 PM 71.6 °F - 24.8 °F 17% 29.88 in 10.0 mi SW 27.6 mph 33.4 mph N/A   Clear
3:15 PM 71.6 °F - 24.8 °F 17% 29.87 in 10.0 mi SW 26.5 mph 34.5 mph N/A   Clear
3:35 PM 73.4 °F - 23.0 °F 15% 29.86 in 10.0 mi WSW 28.8 mph 35.7 mph N/A   Clear
3:55 PM 73.4 °F - 19.4 °F 13% 29.85 in 10.0 mi WSW 25.3 mph 35.7 mph N/A   Clear
4:15 PM 71.6 °F - 21.2 °F 15% 29.85 in 10.0 mi SW 24.2 mph 31.1 mph N/A   Clear
4:35 PM 73.4 °F - 23.0 °F 15% 29.85 in 10.0 mi SW 21.9 mph 32.2 mph N/A   Clear
4:55 PM 73.4 °F - 23.0 °F 15% 29.85 in 10.0 mi WSW 21.9 mph 26.5 mph N/A   Clear
5:15 PM 73.4 °F - 17.6 °F 12% 29.85 in 10.0 mi West 24.2 mph 31.1 mph N/A   Clear
5:35 PM 73.4 °F - 17.6 °F 12% 29.85 in 10.0 mi West 26.5 mph 32.2 mph N/A   Clear
5:55 PM 73.4 °F - 17.6 °F 12% 29.84 in 10.0 mi West 20.7 mph 26.5 mph N/A   Clear
6:15 PM 73.4 °F - 17.6 °F 12% 29.84 in 10.0 mi WSW 16.1 mph 26.5 mph N/A   Clear
6:35 PM 71.6 °F - 24.8 °F 17% 29.84 in 10.0 mi SW 12.7 mph 23.0 mph N/A   Clear
6:55 PM 68.0 °F - 24.8 °F 20% 29.84 in 10.0 mi SW 13.8 mph - N/A   Clear
7:15 PM 64.4 °F - 24.8 °F 22% 29.84 in 10.0 mi SW 10.4 mph - N/A   Clear
7:35 PM 62.6 °F - 24.8 °F 24% 29.84 in 10.0 mi SSW 10.4 mph - N/A   Clear
7:55 PM 57.2 °F - 24.8 °F 29% 29.84 in 10.0 mi SSW 9.2 mph - N/A   Clear
8:15 PM 55.4 °F - 24.8 °F 31% 29.84 in 10.0 mi SSW 8.1 mph - N/A   Clear
8:35 PM 53.6 °F - 24.8 °F 33% 29.84 in 10.0 mi SSW 10.4 mph - N/A   Clear
8:55 PM 51.8 °F - 24.8 °F 35% 29.84 in 10.0 mi SSW 9.2 mph - N/A   Clear
9:15 PM 50.0 °F - 24.8 °F 37% 29.84 in 10.0 mi SSW 9.2 mph - N/A   Clear
9:35 PM 50.0 °F - 24.8 °F 37% 29.84 in 10.0 mi South 10.4 mph - N/A   Clear
9:55 PM 48.2 °F - 24.8 °F 40% 29.84 in 10.0 mi SSW 10.4 mph - N/A   Clear
10:15 PM 46.4 °F 42.4 °F 24.8 °F 43% 29.84 in 10.0 mi SSW 8.1 mph - N/A   Clear
10:35 PM 46.4 °F 41.9 °F 26.6 °F 46% 29.85 in 10.0 mi SSW 9.2 mph - N/A   Clear
10:55 PM 46.4 °F 41.5 °F 26.6 °F 46% 29.84 in 10.0 mi SSW 10.4 mph - N/A   Mostly Cloudy
11:15 PM 46.4 °F 41.9 °F 26.6 °F 46% 29.84 in 10.0 mi SSW 9.2 mph - N/A   Overcast
11:35 PM 46.4 °F 42.4 °F 26.6 °F 46% 29.84 in 10.0 mi SSW 8.1 mph - N/A   Scattered Clouds
11:55 PM 46.4 °F 42.4 °F 26.6 °F 46% 29.83 in 10.0 mi SSW 8.1 mph - N/A   Clear
12:15 AM 46.4 °F 41.9 °F 28.4 °F 50% 29.82 in 10.0 mi SW 9.2 mph - N/A   Clear
12:35 AM 46.4 °F 41.5 °F 28.4 °F 50% 29.82 in 10.0 mi SW 10.4 mph - N/A   Clear
12:55 AM 44.6 °F 40.2 °F 28.4 °F 53% 29.81 in 10.0 mi SW 8.1 mph - N/A   Clear